Saint Bonnet de Bellac- Haute Vienne - France
Donnes mto: vendredi, 06/04/2012
Date Horaire Temp. E. Hum. E. P.atmo. Pluie Vent Direction Direction Ensoleilleme Solaire P. de rose Temp au vent Rafales
06/04/2012 00:00 10,3 C 71 % 1009,4 hPa 0,0 mm 7,2 km/h (2 Bft) N 360 0 min 0 W/m 5,3 C 10,3 C 10,8 km/h (2 Bft)
06/04/2012 00:10 10,3 C 71 % 1009,6 hPa 0,0 mm 9,4 km/h (2 Bft) NE 45 0 min 0 W/m 5,3 C 10,3 C 12,6 km/h (3 Bft)
06/04/2012 00:20 10,3 C 72 % 1009,6 hPa 0,0 mm 5,8 km/h (2 Bft) NE 45 0 min 0 W/m 5,5 C 10,3 C 5,8 km/h (2 Bft)
06/04/2012 00:30 10,2 C 73 % 1009,7 hPa 0,0 mm 3,6 km/h (1 Bft) E-NE 67 0 min 0 W/m 5,6 C 10,2 C 6,8 km/h (2 Bft)
06/04/2012 00:40 10,1 C 73 % 1009,7 hPa 0,0 mm 2,2 km/h (1 Bft) NE 45 0 min 0 W/m 5,5 C 10,1 C 4,0 km/h (1 Bft)
06/04/2012 00:50 9,9 C 73 % 1009,6 hPa 0,0 mm 3,6 km/h (1 Bft) N-NE 22 0 min 0 W/m 5,3 C 9,9 C 7,6 km/h (2 Bft)
06/04/2012 01:00 9,8 C 74 % 1009,6 hPa 0,0 mm 1,8 km/h (1 Bft) NE 45 0 min 0 W/m 5,4 C 9,8 C 4,3 km/h (1 Bft)
06/04/2012 01:10 9,6 C 75 % 1009,6 hPa 0,0 mm 2,2 km/h (1 Bft) NE 45 0 min 0 W/m 5,4 C 9,6 C 4,3 km/h (1 Bft)
06/04/2012 01:20 9,5 C 75 % 1009,6 hPa 0,0 mm 1,4 km/h (1 Bft) NE 45 0 min 0 W/m 5,3 C 9,5 C 3,6 km/h (1 Bft)
06/04/2012 01:30 9,4 C 76 % 1009,5 hPa 0,0 mm 1,8 km/h (1 Bft) NE 45 0 min 0 W/m 5,4 C 9,4 C 4,0 km/h (1 Bft)
06/04/2012 01:40 9,3 C 76 % 1009,6 hPa 0,0 mm 0,4 km/h (0 Bft) E-NE 67 0 min 0 W/m 5,3 C 9,3 C 0,4 km/h (0 Bft)
06/04/2012 01:50 9,2 C 77 % 1009,6 hPa 0,0 mm 0,7 km/h (0 Bft) E 90 0 min 0 W/m 5,4 C 9,2 C 3,6 km/h (1 Bft)
06/04/2012 02:00 9,1 C 78 % 1009,6 hPa 0,0 mm 2,9 km/h (1 Bft) NE 45 0 min 0 W/m 5,5 C 9,1 C 4,3 km/h (1 Bft)
06/04/2012 02:10 9,0 C 78 % 1009,5 hPa 0,0 mm 2,9 km/h (1 Bft) NE 45 0 min 0 W/m 5,4 C 9,0 C 7,2 km/h (2 Bft)
06/04/2012 02:20 8,9 C 79 % 1009,4 hPa 0,0 mm 2,9 km/h (1 Bft) NE 45 0 min 0 W/m 5,5 C 8,9 C 4,3 km/h (1 Bft)
06/04/2012 02:30 8,8 C 79 % 1009,3 hPa 0,0 mm 2,5 km/h (1 Bft) N-NE 22 0 min 0 W/m 5,4 C 8,8 C 4,0 km/h (1 Bft)
06/04/2012 02:40 8,8 C 80 % 1009,4 hPa 0,0 mm 3,2 km/h (1 Bft) N-NE 22 0 min 0 W/m 5,5 C 8,8 C 4,3 km/h (1 Bft)
06/04/2012 02:50 8,7 C 80 % 1009,3 hPa 0,0 mm 5,4 km/h (2 Bft) NE 45 0 min 0 W/m 5,4 C 8,2 C 6,8 km/h (2 Bft)
06/04/2012 03:02 8,6 C 80 % 1009,3 hPa 0,0 mm 4,0 km/h (1 Bft) N-NE 22 0 min 0 W/m 5,3 C 8,6 C 6,1 km/h (2 Bft)
06/04/2012 03:10 8,6 C 81 % 1009,2 hPa 0,0 mm 4,0 km/h (1 Bft) NE 45 0 min 0 W/m 5,5 C 8,6 C 7,9 km/h (2 Bft)
06/04/2012 03:20 8,5 C 81 % 1009,1 hPa 0,0 mm 2,9 km/h (1 Bft) N-NE 22 0 min 0 W/m 5,4 C 8,5 C 4,0 km/h (1 Bft)
06/04/2012 03:30 8,4 C 81 % 1009,1 hPa 0,0 mm 7,6 km/h (2 Bft) N-NE 22 0 min 0 W/m 5,3 C 7,2 C 11,5 km/h (2 Bft)
06/04/2012 03:40 8,4 C 82 % 1009,1 hPa 0,0 mm 4,0 km/h (1 Bft) N-NE 22 0 min 0 W/m 5,5 C 8,4 C 6,8 km/h (2 Bft)
06/04/2012 03:50 8,4 C 82 % 1009,2 hPa 0,0 mm 3,2 km/h (1 Bft) NE 45 0 min 0 W/m 5,5 C 8,4 C 6,1 km/h (2 Bft)
06/04/2012 04:00 8,3 C 82 % 1008,9 hPa 0,0 mm 5,4 km/h (2 Bft) NE 45 0 min 0 W/m 5,4 C 7,7 C 6,5 km/h (2 Bft)
06/04/2012 04:10 8,3 C 83 % 1009,0 hPa 0,0 mm 4,3 km/h (1 Bft) N-NE 22 0 min 0 W/m 5,6 C 8,3 C 6,5 km/h (2 Bft)
06/04/2012 04:20 8,2 C 83 % 1008,9 hPa 0,0 mm 4,0 km/h (1 Bft) N-NE 22 0 min 0 W/m 5,5 C 8,2 C 8,3 km/h (2 Bft)
06/04/2012 04:30 8,2 C 83 % 1008,8 hPa 0,0 mm 3,6 km/h (1 Bft) N-NE 22 0 min 0 W/m 5,5 C 8,2 C 7,6 km/h (2 Bft)
06/04/2012 04:40 8,1 C 83 % 1008,9 hPa 0,0 mm 2,9 km/h (1 Bft) NE 45 0 min 0 W/m 5,4 C 8,1 C 4,0 km/h (1 Bft)
06/04/2012 04:50 8,0 C 83 % 1008,8 hPa 0,0 mm 4,7 km/h (1 Bft) NE 45 0 min 0 W/m 5,3 C 7,6 C 9,4 km/h (2 Bft)
06/04/2012 05:00 7,9 C 84 % 1008,8 hPa 0,0 mm 2,9 km/h (1 Bft) N-NE 22 0 min 0 W/m 5,4 C 7,9 C 4,3 km/h (1 Bft)
06/04/2012 05:10 7,8 C 83 % 1008,8 hPa 0,0 mm 3,2 km/h (1 Bft) NE 45 0 min 0 W/m 5,1 C 7,8 C 6,5 km/h (2 Bft)
06/04/2012 05:20 7,8 C 83 % 1008,7 hPa 0,0 mm 4,7 km/h (1 Bft) NE 45 0 min 0 W/m 5,1 C 7,4 C 10,1 km/h (2 Bft)
06/04/2012 05:30 7,8 C 84 % 1008,6 hPa 0,0 mm 3,6 km/h (1 Bft) N 360 0 min 0 W/m 5,3 C 7,8 C 6,8 km/h (2 Bft)
06/04/2012 05:40 7,7 C 84 % 1008,7 hPa 0,0 mm 5,4 km/h (2 Bft) NE 45 0 min 0 W/m 5,2 C 7,0 C 9,0 km/h (2 Bft)
06/04/2012 05:50 7,6 C 84 % 1008,7 hPa 0,0 mm 3,2 km/h (1 Bft) N-NE 22 0 min 0 W/m 5,1 C 7,6 C 3,6 km/h (1 Bft)
06/04/2012 06:00 7,5 C 84 % 1008,7 hPa 0,0 mm 5,8 km/h (2 Bft) NE 45 0 min 0 W/m 5,0 C 6,7 C 8,6 km/h (2 Bft)
06/04/2012 06:10 7,4 C 84 % 1008,6 hPa 0,0 mm 6,1 km/h (2 Bft) E-NE 67 0 min 0 W/m 4,9 C 6,5 C 12,6 km/h (3 Bft)
06/04/2012 06:20 7,3 C 84 % 1008,6 hPa 0,0 mm 6,1 km/h (2 Bft) N 360 0 min 0 W/m 4,8 C 6,3 C 11,9 km/h (2 Bft)
06/04/2012 06:30 7,2 C 85 % 1008,5 hPa 0,0 mm 3,2 km/h (1 Bft) N-NE 22 0 min 0 W/m 4,9 C 7,2 C 6,8 km/h (2 Bft)
06/04/2012 06:40 7,1 C 85 % 1008,4 hPa 0,0 mm 5,4 km/h (2 Bft) E-NE 67 0 min 0 W/m 4,8 C 6,3 C 11,5 km/h (2 Bft)
06/04/2012 06:50 7,1 C 85 % 1008,4 hPa 0,0 mm 4,7 km/h (1 Bft) N 360 0 min 0 W/m 4,8 C 6,6 C 8,6 km/h (2 Bft)
06/04/2012 07:00 6,9 C 85 % 1008,3 hPa 0,0 mm 4,0 km/h (1 Bft) NE 45 0 min 0 W/m 4,6 C 6,9 C 4,0 km/h (1 Bft)
06/04/2012 07:10 6,9 C 85 % 1008,3 hPa 0,0 mm 5,0 km/h (1 Bft) NE 45 0 min 0 W/m 4,6 C 6,2 C 7,9 km/h (2 Bft)
06/04/2012 07:20 6,8 C 85 % 1008,3 hPa 0,0 mm 5,4 km/h (2 Bft) NE 45 0 min 0 W/m 4,5 C 6,0 C 10,1 km/h (2 Bft)
06/04/2012 07:30 6,8 C 86 % 1008,3 hPa 0,0 mm 7,6 km/h (2 Bft) N-NE 22 0 min 0 W/m 4,6 C 5,3 C 9,4 km/h (2 Bft)
06/04/2012 07:40 6,8 C 86 % 1008,3 hPa 0,0 mm 3,6 km/h (1 Bft) N-NE 22 2 min 0 W/m 4,6 C 6,8 C 6,8 km/h (2 Bft)
06/04/2012 07:50 6,8 C 86 % 1008,4 hPa 0,0 mm 7,2 km/h (2 Bft) N-NE 22 2 min 0 W/m 4,6 C 5,5 C 8,6 km/h (2 Bft)
06/04/2012 08:00 6,8 C 87 % 1008,4 hPa 0,0 mm 5,0 km/h (1 Bft) NE 45 2 min 0 W/m 4,8 C 6,1 C 6,5 km/h (2 Bft)
06/04/2012 08:10 6,8 C 87 % 1008,4 hPa 0,0 mm 6,5 km/h (2 Bft) NE 45 2 min 0 W/m 4,8 C 5,6 C 8,3 km/h (2 Bft)
06/04/2012 08:20 6,8 C 87 % 1008,4 hPa 0,0 mm 7,6 km/h (2 Bft) NE 45 2 min 0 W/m 4,8 C 5,3 C 11,5 km/h (2 Bft)
06/04/2012 08:30 6,8 C 87 % 1008,3 hPa 0,0 mm 6,1 km/h (2 Bft) N-NE 22 2 min 0 W/m 4,8 C 5,8 C 10,8 km/h (2 Bft)
06/04/2012 08:40 6,9 C 87 % 1008,3 hPa 0,0 mm 4,7 km/h (1 Bft) N-NE 22 2 min 0 W/m 4,9 C 6,3 C 4,7 km/h (1 Bft)
06/04/2012 08:50 7,1 C 87 % 1008,3 hPa 0,0 mm 5,4 km/h (2 Bft) N-NE 22 2 min 0 W/m 5,1 C 6,3 C 7,2 km/h (2 Bft)
06/04/2012 09:00 7,3 C 87 % 1008,3 hPa 0,0 mm 7,2 km/h (2 Bft) E-NE 67 2 min 0 W/m 5,3 C 6,0 C 11,5 km/h (2 Bft)
06/04/2012 09:10 7,4 C 87 % 1008,4 hPa 0,0 mm 6,8 km/h (2 Bft) N-NE 22 2 min 0 W/m 5,4 C 6,3 C 10,1 km/h (2 Bft)
06/04/2012 09:20 7,5 C 87 % 1008,4 hPa 0,0 mm 4,3 km/h (1 Bft) NE 45 2 min 0 W/m 5,5 C 7,5 C 6,5 km/h (2 Bft)
06/04/2012 09:30 7,6 C 87 % 1008,4 hPa 0,0 mm 7,6 km/h (2 Bft) N 360 2 min 0 W/m 5,6 C 6,3 C 8,6 km/h (2 Bft)
06/04/2012 09:40 7,8 C 86 % 1008,4 hPa 0,0 mm 8,3 km/h (2 Bft) N-NE 22 2 min 0 W/m 5,6 C 6,4 C 8,3 km/h (2 Bft)
06/04/2012 09:50 7,8 C 86 % 1008,2 hPa 0,0 mm 6,1 km/h (2 Bft) NE 45 2 min 0 W/m 5,6 C 6,9 C 12,2 km/h (2 Bft)
06/04/2012 10:00 7,9 C 86 % 1008,3 hPa 0,0 mm 4,7 km/h (1 Bft) NE 45 2 min 0 W/m 5,7 C 7,5 C 8,6 km/h (2 Bft)
06/04/2012 10:10 8,1 C 86 % 1008,4 hPa 0,0 mm 4,7 km/h (1 Bft) NE 45 2 min 0 W/m 5,9 C 7,7 C 7,2 km/h (2 Bft)
06/04/2012 10:20 8,3 C 85 % 1008,3 hPa 0,0 mm 3,2 km/h (1 Bft) E-NE 67 2 min 0 W/m 5,9 C 8,3 C 6,1 km/h (2 Bft)
06/04/2012 10:30 8,6 C 86 % 1008,4 hPa 0,0 mm 5,8 km/h (2 Bft) NE 45 2 min 0 W/m 6,4 C 7,9 C 5,8 km/h (2 Bft)
06/04/2012 10:40 8,9 C 86 % 1008,4 hPa 0,0 mm 4,3 km/h (1 Bft) E-NE 67 2 min 0 W/m 6,7 C 8,9 C 7,6 km/h (2 Bft)
06/04/2012 10:50 9,5 C 85 % 1008,6 hPa 0,0 mm 4,3 km/h (1 Bft) N-NE 22 2 min 0 W/m 7,1 C 9,5 C 6,1 km/h (2 Bft)
06/04/2012 11:00 10,2 C 84 % 1008,6 hPa 0,0 mm 7,2 km/h (2 Bft) E-NE 67 2 min 0 W/m 7,6 C 10,2 C 9,7 km/h (2 Bft)
06/04/2012 11:10 10,6 C 82 % 1008,6 hPa 0,0 mm 4,0 km/h (1 Bft) NE 45 2 min 0 W/m 7,7 C 10,6 C 7,2 km/h (2 Bft)
06/04/2012 11:20 10,8 C 81 % 1008,5 hPa 0,0 mm 6,1 km/h (2 Bft) N-NE 22 2 min 0 W/m 7,7 C 10,8 C 9,4 km/h (2 Bft)
06/04/2012 11:30 10,9 C 80 % 1008,4 hPa 0,0 mm 6,5 km/h (2 Bft) N-NE 22 2 min 0 W/m 7,6 C 10,9 C 12,6 km/h (3 Bft)
06/04/2012 11:40 11,0 C 80 % 1008,4 hPa 0,0 mm 7,9 km/h (2 Bft) N-NE 22 2 min 0 W/m 7,7 C 11,0 C 10,1 km/h (2 Bft)
06/04/2012 11:50 11,2 C 79 % 1008,5 hPa 0,0 mm 7,9 km/h (2 Bft) NE 45 2 min 0 W/m 7,7 C 11,2 C 7,9 km/h (2 Bft)
06/04/2012 12:00 11,6 C 80 % 1008,5 hPa 0,0 mm 6,5 km/h (2 Bft) N-NE 22 2 min 0 W/m 8,3 C 11,6 C 6,5 km/h (2 Bft)
06/04/2012 12:10 12,5 C 78 % 1008,4 hPa 0,0 mm 9,0 km/h (2 Bft) N-NE 22 2 min 0 W/m 8,8 C 12,5 C 9,4 km/h (2 Bft)
06/04/2012 12:20 13,6 C 76 % 1008,4 hPa 0,0 mm 6,8 km/h (2 Bft) N 360 2 min 0 W/m 9,4 C 13,6 C 7,9 km/h (2 Bft)
06/04/2012 12:30 14,6 C 73 % 1008,4 hPa 0,0 mm 7,6 km/h (2 Bft) NE 45 2 min 0 W/m 9,8 C 14,6 C 9,7 km/h (2 Bft)
06/04/2012 12:40 15,4 C 71 % 1008,4 hPa 0,0 mm 8,6 km/h (2 Bft) N 360 2 min 0 W/m 10,2 C 15,4 C 11,5 km/h (2 Bft)
06/04/2012 12:50 16,0 C 68 % 1008,3 hPa 0,0 mm 6,8 km/h (2 Bft) N-NE 22 2 min 0 W/m 10,1 C 16,0 C 10,1 km/h (2 Bft)
06/04/2012 13:00 16,3 C 67 % 1008,3 hPa 0,0 mm 4,7 km/h (1 Bft) E 90 2 min 0 W/m 10,2 C 16,3 C 9,4 km/h (2 Bft)
06/04/2012 13:10 16,1 C 66 % 1008,1 hPa 0,0 mm 5,4 km/h (2 Bft) E-NE 67 2 min 0 W/m 9,7 C 16,1 C 8,6 km/h (2 Bft)
06/04/2012 13:20 16,0 C 66 % 1008,1 hPa 0,0 mm 12,2 km/h (2 Bft) E-NE 67 2 min 0 W/m 9,7 C 16,0 C 15,1 km/h (3 Bft)
06/04/2012 13:30 15,7 C 66 % 1008,0 hPa 0,0 mm 4,0 km/h (1 Bft) E-NE 67 2 min 0 W/m 9,4 C 15,7 C 8,6 km/h (2 Bft)
06/04/2012 13:40 15,8 C 67 % 1007,9 hPa 0,0 mm 6,1 km/h (2 Bft) N-NO 337 2 min 0 W/m 9,7 C 15,8 C 8,3 km/h (2 Bft)
06/04/2012 13:50 16,5 C 67 % 1007,8 hPa 0,0 mm 5,4 km/h (2 Bft) NE 45 2 min 0 W/m 10,4 C 16,5 C 9,4 km/h (2 Bft)
06/04/2012 14:00 17,1 C 66 % 1007,7 hPa 0,0 mm 3,2 km/h (1 Bft) N-NO 337 2 min 0 W/m 10,7 C 17,1 C 6,5 km/h (2 Bft)
06/04/2012 14:10 17,2 C 65 % 1007,8 hPa 0,0 mm 9,7 km/h (2 Bft) N-NE 22 2 min 0 W/m 10,6 C 17,2 C 9,7 km/h (2 Bft)
06/04/2012 14:20 17,3 C 65 % 1007,6 hPa 0,0 mm 5,4 km/h (2 Bft) NE 45 2 min 0 W/m 10,7 C 17,3 C 9,4 km/h (2 Bft)
06/04/2012 14:30 17,1 C 64 % 1007,3 hPa 0,0 mm 3,2 km/h (1 Bft) N-NE 22 2 min 0 W/m 10,2 C 17,1 C 6,1 km/h (2 Bft)
06/04/2012 14:40 17,3 C 65 % 1007,1 hPa 0,0 mm 4,0 km/h (1 Bft) NE 45 2 min 0 W/m 10,7 C 17,3 C 6,5 km/h (2 Bft)
06/04/2012 14:50 17,5 C 63 % 1006,9 hPa 0,0 mm 7,6 km/h (2 Bft) N-NE 22 2 min 0 W/m 10,4 C 17,5 C 12,6 km/h (3 Bft)
06/04/2012 15:00 17,5 C 62 % 1006,8 hPa 0,0 mm 7,2 km/h (2 Bft) N-NE 22 2 min 0 W/m 10,1 C 17,5 C 10,8 km/h (2 Bft)
06/04/2012 15:10 17,4 C 62 % 1006,7 hPa 0,0 mm 13,0 km/h (3 Bft) N-NE 22 2 min 0 W/m 10,0 C 17,4 C 20,5 km/h (4 Bft)
06/04/2012 15:20 17,3 C 62 % 1006,6 hPa 0,0 mm 8,6 km/h (2 Bft) N-NE 22 2 min 0 W/m 9,9 C 17,3 C 16,9 km/h (3 Bft)
06/04/2012 15:30 17,2 C 62 % 1006,5 hPa 0,0 mm 8,3 km/h (2 Bft) NE 45 2 min 0 W/m 9,9 C 17,2 C 11,5 km/h (2 Bft)
06/04/2012 15:40 17,2 C 62 % 1006,4 hPa 0,0 mm 6,1 km/h (2 Bft) N-NE 22 2 min 0 W/m 9,9 C 17,2 C 10,1 km/h (2 Bft)
06/04/2012 15:50 17,1 C 61 % 1006,3 hPa 0,0 mm 14,0 km/h (3 Bft) N-NE 22 2 min 0 W/m 9,5 C 17,1 C 18,0 km/h (3 Bft)
06/04/2012 16:00 16,7 C 61 % 1006,2 hPa 0,0 mm 13,3 km/h (3 Bft) N-NE 22 2 min 0 W/m 9,1 C 16,7 C 14,8 km/h (3 Bft)
06/04/2012 16:10 16,8 C 62 % 1006,0 hPa 0,0 mm 15,1 km/h (3 Bft) NE 45 2 min 0 W/m 9,5 C 16,8 C 15,1 km/h (3 Bft)
06/04/2012 16:20 16,8 C 62 % 1005,9 hPa 0,0 mm 5,8 km/h (2 Bft) N 360 2 min 0 W/m 9,5 C 16,8 C 10,8 km/h (2 Bft)
06/04/2012 16:30 16,8 C 62 % 1005,8 hPa 0,0 mm 5,8 km/h (2 Bft) N-NE 22 2 min 0 W/m 9,5 C 16,8 C 9,4 km/h (2 Bft)
06/04/2012 16:40 17,0 C 61 % 1005,8 hPa 0,0 mm 7,2 km/h (2 Bft) E-NE 67 2 min 0 W/m 9,4 C 17,0 C 14,8 km/h (3 Bft)
06/04/2012 16:50 16,9 C 61 % 1005,7 hPa 0,0 mm 7,6 km/h (2 Bft) E-NE 67 2 min 0 W/m 9,3 C 16,9 C 14,0 km/h (3 Bft)
06/04/2012 17:00 16,9 C 61 % 1005,6 hPa 0,0 mm 11,2 km/h (2 Bft) NE 45 2 min 0 W/m 9,3 C 16,9 C 14,8 km/h (3 Bft)
06/04/2012 17:10 17,3 C 59 % 1005,5 hPa 0,0 mm 11,9 km/h (2 Bft) N-NE 22 2 min 0 W/m 9,2 C 17,3 C 19,4 km/h (3 Bft)
06/04/2012 17:20 17,2 C 59 % 1005,5 hPa 0,0 mm 9,7 km/h (2 Bft) NE 45 2 min 0 W/m 9,1 C 17,2 C 18,0 km/h (3 Bft)
06/04/2012 17:30 17,4 C 59 % 1005,3 hPa 0,0 mm 6,1 km/h (2 Bft) N-NE 22 2 min 0 W/m 9,3 C 17,4 C 6,1 km/h (2 Bft)
06/04/2012 17:40 17,4 C 58 % 1005,3 hPa 0,0 mm 9,0 km/h (2 Bft) N-NE 22 2 min 0 W/m 9,1 C 17,4 C 9,7 km/h (2 Bft)
06/04/2012 17:50 17,3 C 58 % 1005,4 hPa 0,0 mm 5,8 km/h (2 Bft) N-NE 22 2 min 0 W/m 9,0 C 17,3 C 9,0 km/h (2 Bft)
06/04/2012 18:00 17,3 C 58 % 1005,3 hPa 0,0 mm 9,7 km/h (2 Bft) NE 45 2 min 0 W/m 9,0 C 17,3 C 16,2 km/h (3 Bft)
06/04/2012 18:10 17,6 C 57 % 1005,3 hPa 0,0 mm 9,7 km/h (2 Bft) N-NE 22 2 min 0 W/m 9,0 C 17,6 C 13,7 km/h (3 Bft)
06/04/2012 18:20 17,8 C 56 % 1005,3 hPa 0,0 mm 9,0 km/h (2 Bft) N-NE 22 2 min 0 W/m 8,9 C 17,8 C 11,5 km/h (2 Bft)
06/04/2012 18:30 17,8 C 57 % 1005,4 hPa 0,0 mm 5,4 km/h (2 Bft) N-NE 22 2 min 0 W/m 9,2 C 17,8 C 7,9 km/h (2 Bft)
06/04/2012 18:40 17,6 C 56 % 1005,4 hPa 0,0 mm 7,6 km/h (2 Bft) E-NE 67 2 min 0 W/m 8,7 C 17,6 C 11,2 km/h (2 Bft)
06/04/2012 18:50 17,3 C 56 % 1005,6 hPa 0,0 mm 9,4 km/h (2 Bft) E-NE 67 2 min 0 W/m 8,4 C 17,3 C 11,9 km/h (2 Bft)
06/04/2012 19:00 17,0 C 57 % 1005,7 hPa 0,0 mm 4,7 km/h (1 Bft) NE 45 2 min 0 W/m 8,4 C 17,0 C 7,9 km/h (2 Bft)
06/04/2012 19:10 17,1 C 57 % 1005,5 hPa 0,0 mm 6,5 km/h (2 Bft) N-NE 22 2 min 0 W/m 8,5 C 17,1 C 13,3 km/h (3 Bft)
06/04/2012 19:20 16,9 C 56 % 1005,6 hPa 0,0 mm 7,2 km/h (2 Bft) NE 45 2 min 0 W/m 8,1 C 16,9 C 9,0 km/h (2 Bft)
06/04/2012 19:30 16,9 C 57 % 1005,5 hPa 0,0 mm 4,3 km/h (1 Bft) N-NE 22 2 min 0 W/m 8,3 C 16,9 C 9,0 km/h (2 Bft)
06/04/2012 19:40 16,8 C 57 % 1005,5 hPa 0,0 mm 6,1 km/h (2 Bft) N-NE 22 2 min 0 W/m 8,2 C 16,8 C 9,7 km/h (2 Bft)
06/04/2012 19:50 16,5 C 58 % 1005,6 hPa 0,0 mm 3,2 km/h (1 Bft) NE 45 2 min 0 W/m 8,2 C 16,5 C 4,0 km/h (1 Bft)
06/04/2012 20:00 16,2 C 59 % 1005,6 hPa 0,0 mm 7,6 km/h (2 Bft) N-NE 22 2 min 0 W/m 8,2 C 16,2 C 10,8 km/h (2 Bft)
06/04/2012 20:10 15,9 C 61 % 1005,6 hPa 0,0 mm 4,0 km/h (1 Bft) N-NE 22 2 min 0 W/m 8,4 C 15,9 C 4,0 km/h (1 Bft)
06/04/2012 20:20 15,7 C 61 % 1005,6 hPa 0,0 mm 10,1 km/h (2 Bft) NE 45 2 min 0 W/m 8,2 C 15,7 C 15,8 km/h (3 Bft)
06/04/2012 20:30 15,4 C 62 % 1005,7 hPa 0,0 mm 7,9 km/h (2 Bft) NE 45 0 min 0 W/m 8,2 C 15,4 C 13,7 km/h (3 Bft)
06/04/2012 20:40 15,3 C 62 % 1005,8 hPa 0,0 mm 2,5 km/h (1 Bft) NE 45 0 min 0 W/m 8,1 C 15,3 C 7,2 km/h (2 Bft)
06/04/2012 20:50 15,1 C 64 % 1005,9 hPa 0,0 mm 4,3 km/h (1 Bft) NE 45 0 min 0 W/m 8,3 C 15,1 C 10,1 km/h (2 Bft)
06/04/2012 21:00 14,9 C 66 % 1006,0 hPa 0,0 mm 7,2 km/h (2 Bft) E-NE 67 0 min 0 W/m 8,6 C 14,9 C 15,1 km/h (3 Bft)
06/04/2012 21:10 14,6 C 68 % 1006,1 hPa 0,0 mm 0,0 km/h (0 Bft) E 90 0 min 0 W/m 8,8 C 14,6 C 1,4 km/h (1 Bft)
06/04/2012 21:20 14,3 C 70 % 1006,2 hPa 0,0 mm 4,3 km/h (1 Bft) E-NE 67 0 min 0 W/m 8,9 C 14,3 C 5,8 km/h (2 Bft)
06/04/2012 21:30 13,9 C 72 % 1006,2 hPa 0,0 mm 1,1 km/h (1 Bft) NE 45 0 min 0 W/m 8,9 C 13,9 C 4,0 km/h (1 Bft)
06/04/2012 21:40 13,5 C 73 % 1006,3 hPa 0,0 mm 1,4 km/h (1 Bft) NE 45 0 min 0 W/m 8,8 C 13,5 C 4,3 km/h (1 Bft)
06/04/2012 21:50 13,1 C 74 % 1006,2 hPa 0,0 mm 1,4 km/h (1 Bft) E-NE 67 0 min 0 W/m 8,6 C 13,1 C 6,1 km/h (2 Bft)
06/04/2012 22:00 12,8 C 74 % 1006,2 hPa 0,0 mm 4,0 km/h (1 Bft) N-NE 22 0 min 0 W/m 8,3 C 12,8 C 4,3 km/h (1 Bft)
06/04/2012 22:10 12,6 C 74 % 1006,1 hPa 0,0 mm 6,1 km/h (2 Bft) N-NE 22 0 min 0 W/m 8,1 C 12,6 C 12,2 km/h (2 Bft)
06/04/2012 22:20 12,4 C 73 % 1006,1 hPa 0,0 mm 0,0 km/h (0 Bft) NE 45 0 min 0 W/m 7,7 C 12,4 C 0,0 km/h (0 Bft)
06/04/2012 22:30 12,3 C 73 % 1006,1 hPa 0,0 mm 1,4 km/h (1 Bft) E-NE 67 0 min 0 W/m 7,6 C 12,3 C 4,0 km/h (1 Bft)
06/04/2012 22:40 12,1 C 74 % 1006,1 hPa 0,0 mm 1,8 km/h (1 Bft) E-NE 67 0 min 0 W/m 7,6 C 12,1 C 5,0 km/h (1 Bft)
06/04/2012 22:50 11,9 C 74 % 1006,1 hPa 0,0 mm 2,5 km/h (1 Bft) NE 45 0 min 0 W/m 7,4 C 11,9 C 4,3 km/h (1 Bft)
06/04/2012 23:00 11,6 C 74 % 1006,1 hPa 0,0 mm 0,4 km/h (0 Bft) E 90 0 min 0 W/m 7,1 C 11,6 C 0,4 km/h (0 Bft)
06/04/2012 23:10 11,4 C 75 % 1006,3 hPa 0,0 mm 0,4 km/h (0 Bft) NE 45 0 min 0 W/m 7,1 C 11,4 C 3,2 km/h (1 Bft)
06/04/2012 23:20 11,3 C 76 % 1006,3 hPa 0,0 mm 3,6 km/h (1 Bft) N-NE 22 0 min 0 W/m 7,2 C 11,3 C 6,8 km/h (2 Bft)
06/04/2012 23:30 11,2 C 77 % 1006,3 hPa 0,0 mm 2,2 km/h (1 Bft) N-NE 22 0 min 0 W/m 7,3 C 11,2 C 4,3 km/h (1 Bft)
06/04/2012 23:40 11,1 C 77 % 1006,3 hPa 0,0 mm 0,7 km/h (0 Bft) N-NE 22 0 min 0 W/m 7,2 C 11,1 C 3,2 km/h (1 Bft)
06/04/2012 23:50 11,0 C 77 % 1006,3 hPa 0,0 mm 0,0 km/h (0 Bft) N-NE 22 0 min 0 W/m 7,1 C 11,0 C 0,0 km/h (0 Bft)
_ Min-Heure 08:30 19:20 18:20 - 23:50 - - - - 07:20 08:20 23:50
Minimum _ 6,8 C 56 % 1005,3 hPa - 0,0 km/h (0 Bft) - - - - 4,5 C 5,3 C 0,0 km/h (0 Bft)
_ Max-Heure 18:30 09:30 00:40 23:50 16:10 - - 20:20 23:50 14:00 18:30 15:10
Maximum _ 17,8 C 87 % 1009,7 hPa 0,0 mm 15,1 km/h
NE (3 Bft)
- - 2 min 0 W/m 10,7 C 17,8 C 20,5 km/h
N-NE (4 Bft)
Moyenne _ 12,0 C 74 % 1007,6 hPa #0,0 mm 5,4 km/h (2 Bft) N-NE - #2:34 h 0 W/m 7,2 C 11,8 C 8,4 km/h (2 Bft)
Saint Bonnet de Bellac- Haute Vienne - France